CAPE
0 0 0 12 2 0 0 19 8 65 113 15 23 7 1 21 5 0 4 0 21 40 29 11 0 2 0 0 0 0 0 0 0 0 0 0 0 0 0 0 0 0 0 0
2 0 1 14 4 0 22 16 7 25 43 6 1 8 1 4 6 0 5 0 2 21 52 26 28 15 0 0 0 0 0 0 0 0 0 0 0 0 0 0 0 0 0 0
0 5 5 14 8 0 23 13 5 14 17 0 11 2 0 17 2 0 1 0 0 8 86 26 28 0 0 0 0 0 0 0 0 0 0 0 0 0 0 0 0 0 0 0
2 13 4 5 3 3 17 3 6 15 7 14 17 17 0 7 21 1 2 0 2 10 56 2 0 0 0 0 0 0 0 0 0 0 0 0 0 0 0 0 0 0 0 0
8 5 0 11 9 1 31 5 13 13 11 12 6 3 0 15 8 0 3 0 0 0 3 0 0 0 0 0 0 0 0 0 0 0 0 0 0 0 0 0 0 0 0 0
15 15 11 17 12 9 15 10 2 23 9 5 9 1 0 2 2 0 3 0 0 0 1 0 1 0 0 0 0 0 0 0 0 0 0 0 0 0 0 0 0 0 0 0
15 13 16 11 10 7 22 12 28 22 2 11 12 1 2 0 0 1 0 0 0 0 0 0 0 0 0 0 0 0 0 0 0 0 0 0 0 0 0 0 0 0 0 0
20 13 9 4 10 10 26 35 31 6 5 9 8 8 0 0 1 2 3 0 0 0 0 0 0 0 0 0 0 0 0 0 0 0 0 0 0 0 0 0 0 0 0 0
9 0 1 0 0 2 25 20 30 33 3 0 14 13 5 4 14 1 3 0 0 0 0 1 0 0 0 0 0 0 0 0 0 0 0 0 0 0 0 0 0 0 0 0
0 0 5 6 2 5 20 17 32 27 3 0 1 12 9 0 0 0 5 4 0 0 0 1 1 6 0 0 0 0 0 0 0 0 0 0 0 0 0 0 0 0 0 0
1 4 5 1 1 0 27 5 25 27 7 1 6 18 14 14 0 0 0 2 0 0 1 6 4 0 0 0 0 0 0 0 0 0 0 0 0 0 0 0 0 0 0 0
1 3 9 10 3 9 27 16 26 35 42 7 14 18 28 6 0 0 0 0 2 2 0 4 3 0 0 0 0 0 0 0 0 0 0 0 0 0 0 0 0 0 0 0
18 22 8 3 8 21 31 9 20 53 37 8 4 2 8 16 2 0 0 2 1 0 0 0 1 5 0 0 0 0 0 0 0 0 0 0 0 0 0 0 0 0 0 0
9 4 9 9 10 21 23 22 29 31 8 4 0 3 13 10 0 0 0 0 0 2 0 0 0 0 0 0 0 0 0 0 0 0 0 0 0 0 0 0 0 0 0 0
1 6 2 15 19 17 23 54 44 39 9 15 17 20 9 3 0 0 0 0 1 3 13 0 0 0 0 0 0 0 0 0 0 0 0 0 0 0 0 0 0 0 0 0
2 3 20 18 19 18 42 36 23 56 17 17 12 12 18 17 0 0 2 0 2 2 7 7 0 0 0 0 0 0 0 0 0 0 0 0 0 0 0 0 0 0 0 0
1 5 29 18 10 34 16 0 2 1 32 0 10 5 3 10 19 2 9 3 3 2 4 4 3 3 0 0 0 0 0 0 0 0 0 0 0 0 0 0 0 0 0 0
9 24 15 14 18 25 1 46 0 9 10 9 17 8 7 34 31 19 17 10 7 3 4 5 5 1 0 0 0 0 0 0 0 0 0 0 0 0 0 0 0 0 0 0
16 9 9 17 6 0 1 17 0 32 1 15 13 11 12 26 37 24 32 2 0 0 2 4 10 0 0 0 0 0 0 0 0 0 0 0 0 0 0 0 0 0 0 0
29 14 4 0 1 8 17 1 9 5 24 28 17 9 10 18 34 32 16 33 7 1 0 3 4 6 2 2 0 0 0 0 0 0 0 0 0 0 0 0 0 0 0 0
20 0 0 1 8 20 2 0 0 1 2 7 6 12 13 2 10 12 20 17 6 0 0 10 5 0 0 0 0 0 0 0 0 0 0 0 0 0 0 0 0 0 0 0
1 2 3 6 1 0 0 0 5 4 2 9 0 0 1 0 2 9 2 15 10 0 20 15 0 0 0 0 0 0 0 0 0 0 0 0 0 0 0 0 0 0 0 0
0 3 0 0 0 0 0 0 4 2 6 4 0 0 0 1 0 0 4 4 0 21 20 3 0 0 0 0 0 0 0 0 0 0 0 0 0 0 0 0 0 0 0 0
0 0 0 0 0 0 3 2 6 4 11 12 4 0 3 8 0 0 2 3 5 9 0 0 0 0 0 0 0 0 0 0 0 0 0 0 0 0 0 0 0 0 0 0
0 0 0 0 5 23 25 6 2 0 0 18 8 5 31 12 0 0 0 0 0 0 0 0 0 0 0 0 0 0 0 0 0 0 0 0 0 0 0 0 0 0 0 0
9 2 12 9 0 18 27 14 1 1 0 13 14 24 22 15 2 1 1 3 0 0 0 0 0 0 0 0 0 0 0 0 0 0 0 0 0 0 0 0 0 0 0 0
12 10 0 11 20 26 17 7 4 0 0 8 22 20 13 2 0 3 0 3 0 7 0 0 0 0 0 0 0 0 0 0 0 0 0 0 0 0 0 0 0 0 0 0
CIN
-0 -0 -0 -0 -2 -0 -0 -0 -0 -3 -0 -0 -1 -0 -2 -10 -1 -0 -0 -0 -21 -5 -16 -1 -0 -19 -0 -0 -0 -0 -0 -0 -0 -0 -0 -0 -0 -0 -0 -0 -0 -0 -0 -0
-1 -0 -8 -0 -1 -0 -0 -0 -1 -4 -2 -0 -0 -0 -4 -2 -6 -0 -1 -0 -4 -7 -9 -4 -23 -20 -0 -0 -0 -0 -0 -0 -0 -0 -0 -0 -0 -0 -0 -0 -0 -0 -0 -0
-0 -1 -2 -0 -1 -1 -0 -0 -0 -1 -1 -0 -2 -3 -0 -1 -0 -0 -0 -0 -0 -9 -3 -16 -7 -0 -0 -0 -0 -0 -0 -0 -0 -0 -0 -0 -0 -0 -0 -0 -0 -0 -0 -0
-0 -0 -3 -6 -4 -5 -1 -0 -0 -1 -1 -2 -1 -2 -0 -0 -0 -0 -2 -0 -6 -24 -6 -17 -3 -0 -0 -0 -0 -0 -0 -0 -0 -0 -0 -0 -0 -0 -0 -0 -0 -0 -0 -0
-1 -4 -0 -8 -5 -8 -0 -1 -0 -2 -1 -2 -3 -5 -0 -0 -1 -0 -1 -0 -0 -0 -24 -1 -1 -0 -0 -0 -0 -0 -0 -0 -0 -0 -0 -0 -0 -0 -0 -0 -0 -0 -0 -0
-0 -1 -4 -8 -3 -4 -0 -0 -0 -0 -1 -4 -6 -5 -0 -1 -0 -0 -0 -1 -0 -0 -7 -29 -15 -0 -0 -0 -0 -0 -0 -0 -0 -0 -0 -0 -0 -0 -0 -0 -0 -0 -0 -0
-0 -0 -0 -9 -5 -4 -1 -1 -0 -0 -1 -3 -5 -4 -3 -0 -0 -0 -0 -0 -0 -0 -0 -0 -0 -0 -0 -0 -0 -0 -0 -0 -0 -0 -0 -0 -0 -0 -0 -0 -0 -0 -0 -0
-0 -0 -2 -4 -6 -6 -0 -0 -0 -0 -0 -2 -2 -2 -4 -0 -0 -0 -0 -0 -0 -0 -3 -0 -0 -0 -0 -0 -0 -0 -0 -0 -0 -0 -0 -0 -0 -0 -0 -0 -0 -0 -0 -0
-0 -1 -5 -10 -0 -6 -0 -0 -1 -0 -0 -0 -2 -4 -5 -2 -0 -0 -0 -0 -0 -0 -0 -4 -1 -0 -0 -0 -0 -0 -0 -0 -0 -0 -0 -0 -0 -0 -0 -0 -0 -0 -0 -0
-0 -0 -2 -2 -3 -3 -0 -1 -1 -0 -1 -0 -8 -1 -1 -0 -0 -0 -0 -0 -0 -0 -0 -4 -3 -5 -0 -0 -0 -0 -0 -0 -0 -0 -0 -0 -0 -0 -0 -0 -0 -0 -0 -0
-0 -2 -2 -1 -1 -0 -0 -1 -0 -0 -0 -1 -6 -4 -2 -0 -0 -0 -0 -0 -0 -0 -2 -2 -4 -0 -0 -0 -0 -0 -0 -0 -0 -0 -0 -0 -0 -0 -0 -0 -0 -0 -0 -0
-0 -1 -0 -0 -0 -0 -0 -0 -0 -2 -0 -1 -2 -5 -2 -1 -0 -0 -0 -0 -1 -17 -0 -6 -2 -0 -0 -0 -0 -0 -0 -0 -0 -0 -0 -0 -0 -0 -0 -0 -0 -0 -0 -0
-0 -0 -0 -0 -0 -0 -0 -0 -1 -0 -0 -0 -1 -1 -3 -2 -7 -0 -0 -0 -0 -0 -0 -0 -3 -7 -0 -0 -0 -0 -0 -0 -0 -0 -0 -0 -0 -0 -0 -0 -0 -0 -0 -0
-0 -0 -0 -0 -0 -0 -0 -0 -1 -0 -0 -0 -0 -3 -2 -2 -0 -0 -0 -0 -0 -0 -0 -0 -0 -0 -0 -0 -0 -0 -0 -0 -0 -0 -0 -0 -0 -0 -0 -0 -0 -0 -0 -0
-0 -0 -0 -0 -0 -0 -0 -0 -0 -0 -1 -1 -3 -3 -3 -3 -0 -0 -0 -0 -0 -0 -0 -0 -0 -0 -0 -0 -0 -0 -0 -0 -0 -0 -0 -0 -0 -0 -0 -0 -0 -0 -0 -0
-0 -0 -0 -0 -0 -0 -0 -0 -0 -0 -3 -0 -1 -1 -1 -2 -0 -0 -0 -0 -0 -0 -0 -1 -0 -0 -0 -0 -0 -0 -0 -0 -0 -0 -0 -0 -0 -0 -0 -0 -0 -0 -0 -0
-0 -0 -1 -0 -0 -0 -0 -0 -2 -0 -0 -0 -1 -2 -0 -1 -1 -0 -0 -0 -0 -0 -0 -0 -1 -2 -0 -0 -0 -0 -0 -0 -0 -0 -0 -0 -0 -0 -0 -0 -0 -0 -0 -0
-0 -1 -3 -0 -0 -0 -0 -1 -0 -11 -0 -0 -0 -1 -2 -0 -0 -0 -0 -0 -1 -0 -0 -1 -0 -0 -0 -0 -0 -0 -0 -0 -0 -0 -0 -0 -0 -0 -0 -0 -0 -0 -0 -0
-1 -2 -5 -0 -0 -0 -0 -18 -26 -21 -10 -0 -1 -1 -1 -0 -1 -1 -0 -3 -0 -0 -0 -0 -2 -0 -0 -0 -0 -0 -0 -0 -0 -0 -0 -0 -0 -0 -0 -0 -0 -0 -0 -0
-0 -0 -0 -0 -0 -2 -5 -0 -3 -2 -0 -1 -1 -3 -4 -15 -0 -0 -1 -0 -1 -0 -0 -0 -1 -2 -2 -1 -0 -0 -0 -0 -0 -0 -0 -0 -0 -0 -0 -0 -0 -0 -0 -0
-0 -0 -0 -0 -0 -0 -0 -0 -0 -0 -0 -1 -1 -3 -3 -15 -1 -0 -0 -1 -5 -0 -0 -0 -1 -0 -0 -0 -0 -0 -0 -0 -0 -0 -0 -0 -0 -0 -0 -0 -0 -0 -0 -0
-5 -0 -0 -0 -0 -0 -0 -0 -1 -2 -3 -2 -0 -1 -6 -0 -0 -11 -0 -0 -5 -0 -2 -1 -0 -0 -0 -0 -0 -0 -0 -0 -0 -0 -0 -0 -0 -0 -0 -0 -0 -0 -0 -0
-0 -0 -0 -0 -0 -0 -0 -0 -0 -1 -2 -2 -0 -0 -4 -5 -0 -0 -1 -1 -0 -1 -0 -0 -0 -0 -0 -0 -0 -0 -0 -0 -0 -0 -0 -0 -0 -0 -0 -0 -0 -0 -0 -0
-0 -0 -0 -0 -0 -0 -2 -5 -5 -3 -4 -4 -4 -0 -2 -1 -0 -0 -0 -1 -4 -0 -0 -0 -0 -0 -0 -0 -0 -0 -0 -0 -0 -0 -0 -0 -0 -0 -0 -0 -0 -0 -0 -0
-0 -0 -0 -0 -2 -3 -3 -4 -2 -0 -0 -4 -3 -2 -0 -0 -0 -0 -0 -0 -0 -0 -0 -0 -0 -0 -0 -0 -0 -0 -0 -0 -0 -0 -0 -0 -0 -0 -0 -0 -0 -0 -0 -0
-0 -0 -4 -5 -0 -8 -1 -3 -1 -2 -0 -4 -2 -2 -1 -0 -0 -0 -0 -0 -0 -0 -0 -0 -0 -0 -0 -0 -0 -0 -0 -0 -0 -0 -0 -0 -0 -0 -0 -0 -0 -0 -0 -0
-0 -1 -0 -6 -2 -7 -4 -3 -3 -0 -0 -4 -2 -1 -2 -1 -0 -0 -0 -1 -0 -13 -0 -0 -0 -0 -0 -0 -0 -0 -0 -0 -0 -0 -0 -0 -0 -0 -0 -0 -0 -0 -0 -0
Wind_Speed
25 25 25 24 24 24 19 19 20 15 14 18 20 24 33 30 37 36 36 30 32 39 31 42 42 42 31 22 20 24 21 20 25 19 15 12 4 10 7 10 11 14 15 15
25 23 23 23 22 20 19 19 18 16 19 23 29 32 36 42 36 37 30 31 31 29 33 37 39 32 26 20 22 21 18 21 22 20 19 13 12 5 7 12 13 11 10 13
24 21 20 20 19 18 14 17 18 17 18 27 33 34 34 38 39 35 37 35 38 30 29 26 31 27 24 22 24 20 18 21 22 25 21 7 5 8 5 5 13 11 4 11
22 20 18 17 16 15 11 13 15 23 24 24 27 28 30 36 39 31 36 32 31 28 29 28 31 26 24 24 23 21 17 23 21 20 14 11 7 3 7 6 4 4 9 5
22 19 15 15 14 13 11 14 19 24 31 33 34 30 31 34 36 32 36 34 31 34 27 29 30 25 24 26 22 19 17 20 15 16 15 16 18 17 4 8 8 13 2 12
20 18 16 14 13 12 13 16 26 28 29 31 31 30 31 27 28 32 39 31 32 34 23 35 26 23 21 22 19 18 16 14 10 17 15 19 25 28 12 8 5 13 12 8
20 18 17 16 15 13 17 19 21 28 36 35 34 32 30 33 29 31 30 27 26 24 18 10 9 15 17 13 15 17 14 8 10 14 11 21 20 19 3 12 5 9 16 4
20 20 20 20 20 20 25 23 23 27 31 34 34 34 32 33 32 30 33 33 21 28 23 13 16 18 17 17 19 19 20 12 14 16 16 24 22 16 12 4 6 16 14 8
22 23 24 26 25 29 33 31 30 28 32 35 32 34 33 34 30 28 27 31 25 24 27 26 27 30 27 25 19 19 20 18 15 16 19 18 15 13 12 9 13 11 10 9
26 29 34 32 32 37 38 39 35 31 34 41 37 32 28 28 29 29 25 25 28 25 27 28 27 26 24 27 27 22 18 21 20 22 19 22 14 9 10 11 13 13 8 9
36 39 37 39 41 43 43 44 39 34 35 40 37 34 34 31 29 27 25 27 32 30 28 27 25 25 27 26 23 21 21 20 22 21 19 21 8 8 13 14 14 14 9 9
46 45 47 46 46 46 45 45 40 38 39 34 30 36 32 33 30 27 24 27 29 27 26 24 24 23 22 21 26 24 25 19 18 17 20 15 5 14 7 13 14 13 11 12
46 45 45 46 47 49 50 46 39 35 40 38 43 42 38 35 28 27 27 26 22 27 22 24 22 23 20 25 22 19 23 18 18 17 21 21 21 25 8 9 13 12 12 12
42 42 42 44 46 49 51 47 39 33 27 35 38 32 33 34 29 32 28 30 28 30 31 28 24 24 22 24 21 20 20 13 21 23 23 18 23 24 15 14 11 10 10 11
40 40 40 41 43 38 44 42 41 38 34 25 29 30 35 33 35 35 34 29 29 29 31 33 34 25 23 24 23 24 20 18 21 21 14 17 14 14 13 16 16 14 12 12
38 37 35 38 15 20 33 37 44 42 38 32 28 22 25 31 33 33 34 29 28 28 29 31 34 26 27 28 31 27 19 21 20 19 17 18 17 16 13 14 15 16 14 12
36 34 31 16 17 27 36 28 24 29 29 28 30 30 27 29 29 28 27 24 26 30 30 35 38 32 30 35 35 28 23 26 26 25 21 21 22 18 8 10 12 14 14 13
33 27 16 10 15 25 36 25 18 19 25 27 29 28 26 24 26 27 25 25 24 27 28 30 35 29 31 39 40 39 25 25 28 28 28 27 24 21 8 10 12 13 13 13
23 5 6 12 24 28 29 21 14 20 25 29 30 29 27 22 28 25 23 24 32 28 33 34 28 37 38 35 40 38 42 40 36 34 33 33 31 29 25 11 12 12 13 14
10 9 20 23 23 16 13 18 25 29 31 31 36 34 29 23 26 29 27 31 33 32 35 31 46 50 46 41 33 34 37 37 35 35 35 32 32 31 24 16 14 12 13 15
21 18 21 18 18 17 23 25 29 27 31 33 35 38 31 22 28 29 27 30 31 33 32 32 35 46 50 47 45 39 37 36 35 36 34 32 31 29 22 17 14 13 13 15
19 14 13 17 19 21 25 29 29 30 35 26 35 36 34 20 24 29 28 32 31 32 24 32 39 38 37 39 45 46 44 42 42 39 35 35 31 25 10 9 13 14 13 14
19 17 22 22 22 29 36 39 36 34 23 24 23 24 28 18 22 29 30 39 39 28 33 36 38 31 32 35 34 39 43 46 46 45 42 38 37 33 21 4 11 11 13 13
23 23 27 29 31 33 32 37 33 30 27 18 21 21 24 20 22 28 33 34 32 39 42 48 37 33 32 33 33 35 39 42 45 45 45 45 44 41 28 11 10 11 12 12
24 29 35 37 32 28 28 26 27 29 29 20 20 24 23 25 28 25 29 35 40 39 45 39 33 33 35 35 35 36 34 37 39 41 42 42 42 42 11 9 8 12 8 11
30 31 36 32 37 27 26 26 25 24 31 24 23 26 27 28 30 30 31 38 43 40 35 34 33 33 34 35 34 35 33 33 34 35 38 34 32 14 11 9 12 10 12 14
37 41 41 34 35 31 28 26 24 24 31 28 30 28 30 25 36 36 33 31 28 28 23 24 24 25 28 31 31 28 30 31 32 30 32 30 26 20 11 9 10 9 10 12
Wind_Direction
324 325 328 332 336 339 343 337 330 345 346 314 295 286 267 262 251 243 253 250 251 238 233 231 233 235 243 246 240 250 261 271 279 279 309 304 275 305 311 320 328 320 329 339
323 323 326 330 335 341 341 333 324 321 312 300 281 274 264 241 242 239 254 251 251 244 239 234 235 238 249 240 241 243 250 264 269 281 301 295 292 203 300 304 320 320 335 346
322 321 323 328 333 338 339 332 329 318 303 282 271 270 266 242 234 251 243 239 243 242 239 240 232 234 242 246 241 253 251 263 268 277 299 319 294 186 222 282 301 314 305 344
317 319 318 324 329 333 332 327 315 297 292 280 278 270 265 243 227 243 240 243 232 238 238 236 234 236 239 239 246 250 254 266 268 281 298 311 330 299 184 204 236 304 336 174
317 316 311 314 320 324 309 313 301 290 275 270 264 264 254 241 234 242 237 243 247 233 238 236 234 236 238 239 241 244 258 272 271 281 289 294 295 293 239 193 186 198 279 196
312 312 312 306 307 308 307 297 284 283 274 268 260 257 250 242 258 252 237 249 239 230 250 238 249 240 240 247 232 239 250 268 275 281 287 289 283 213 192 189 186 185 178 180
307 305 302 297 291 287 285 289 286 272 262 256 253 253 253 245 255 250 247 261 239 244 251 246 240 238 245 237 231 242 244 261 283 285 298 284 287 301 325 180 180 174 184 128
302 299 296 291 285 281 274 274 275 269 265 253 251 248 254 250 253 248 243 239 260 228 226 214 227 231 235 242 245 243 244 261 275 279 283 274 283 305 334 26 142 177 171 152
299 296 291 285 280 272 264 263 261 267 260 248 250 251 254 246 245 252 250 246 248 234 233 232 233 232 233 235 239 247 246 260 278 280 279 287 298 329 335 335 329 356 147 150
296 291 283 279 273 260 254 248 250 259 254 245 249 249 251 247 244 251 247 248 234 238 236 231 237 236 237 233 236 239 245 255 265 267 276 275 301 339 345 331 343 351 21 130
287 280 279 269 260 249 243 239 246 249 249 246 250 252 247 238 242 245 253 240 231 232 237 237 242 242 240 243 243 242 251 258 261 263 272 276 327 330 298 329 0 8 50 100
271 269 258 251 245 240 236 238 241 243 243 247 257 249 255 239 239 252 253 245 233 230 238 238 243 244 242 240 242 248 249 256 264 264 262 279 51 288 14 347 17 20 46 92
260 253 247 241 238 228 224 231 237 241 240 250 246 243 244 245 248 245 243 239 243 237 241 243 247 244 244 239 248 243 249 249 258 256 253 255 248 204 349 75 9 26 60 92
253 248 240 234 227 216 218 225 232 234 245 243 243 249 241 239 238 233 247 241 247 241 234 237 244 247 250 242 248 246 248 244 249 247 250 262 239 197 148 143 109 62 68 95
250 245 239 228 207 224 222 227 229 229 232 245 248 252 241 238 233 233 232 242 242 236 236 237 237 250 248 245 246 245 245 252 247 244 259 259 276 291 122 145 147 125 102 107
246 243 236 223 204 212 219 226 226 225 232 243 244 251 246 235 233 236 232 241 247 240 234 233 234 240 239 241 240 244 248 248 250 250 259 260 265 277 314 136 141 142 127 119
239 237 240 244 187 214 215 228 236 221 231 239 245 248 246 239 233 236 241 250 248 240 241 238 231 237 241 237 234 240 246 243 243 243 250 252 248 269 355 87 117 134 137 129
226 238 246 208 190 214 220 236 240 203 230 238 241 242 247 234 232 235 240 240 245 242 243 238 234 243 242 235 228 229 245 246 243 241 242 244 254 264 255 98 110 124 128 131
234 226 198 209 218 220 221 235 210 222 232 234 236 235 238 234 233 238 236 243 238 247 240 240 247 237 235 238 230 235 233 231 239 240 238 237 239 225 206 137 136 135 137 138
206 199 223 227 221 207 195 224 222 230 236 239 231 230 238 239 231 231 235 235 236 241 243 250 240 231 230 231 240 244 239 238 239 235 234 243 235 221 190 165 152 143 142 143
219 228 229 227 157 215 225 229 228 233 233 235 232 226 231 244 234 229 236 232 234 240 241 241 244 237 223 227 231 239 239 237 237 235 239 242 234 237 179 164 153 147 142 148
216 225 216 201 224 232 230 229 231 233 232 238 230 228 230 248 245 233 237 231 231 238 238 243 244 240 236 235 228 222 227 233 230 233 237 237 237 249 288 135 146 147 145 146
212 226 220 230 230 229 228 223 227 229 238 234 235 224 228 249 245 237 234 228 231 244 242 247 241 245 241 241 247 243 237 231 230 227 232 238 234 233 266 150 141 139 146 148
226 222 227 230 230 233 235 230 231 230 234 236 227 215 225 236 235 238 233 232 237 240 242 236 241 247 249 251 256 255 247 237 233 224 229 231 229 223 254 181 165 156 153 149
230 228 230 229 231 238 234 237 228 226 226 231 217 217 231 231 233 238 232 230 233 238 236 241 246 247 250 254 253 249 252 247 244 238 236 237 238 213 222 213 188 174 164 158
231 236 229 232 227 234 233 231 225 220 219 222 214 224 233 234 232 232 233 229 230 238 242 246 247 256 255 253 253 253 257 255 251 248 238 244 247 234 233 227 183 183 174 170
233 231 229 234 231 233 232 228 222 219 220 222 221 231 232 238 232 231 234 238 238 239 259 261 266 266 265 260 258 263 263 258 252 250 244 246 251 252 238 221 185 182 176 173